Search your local weather  

 
Advertise Here

Hazardous Weather Conditions

No active alerts for HOUSTON, TEXAS

Current Conditions: HOUSTON, TEXAS

Overcast


82.0 F

Last Updated on Jul 6 2020, 6:53 am CDT
Humidity: 79%
Wind Speed: S 5.8 mph
Barometer 29.90 in
Dewpoint: 75.0 F
Visibility: 10.00 mi
Precip: --
Heat Index: 89 F
Wind Chill: NA
Current conditions at:

Houston, Hooks Memorial Airport, TX (KDWH)

Lat: 30.0675 Lon: -95.55611

Local Radar Image active severe weather and emergency alerts image image weather storm and storm spotter reports image weather observation monitoring service image
Local
Radar
Active
Alerts
Storm Reports Weather
Monitoring

5 Day Forecast for HOUSTON, TEXAS (77002)

Monday

Isolated T-storm

High 92 °F
Monday
Night
Mostly Cloudy

Low 80 °F
Tuesday

T-storms Likely

High 93 °F
Tuesday
Night
Partly Cloudy

Low 79 °F
Wednesday

Chance of Scattered T-storms
High 94 °F
Wednesday
Night
Partly Cloudy

Low 80 °F
Thursday

Isolated T-storm

High 95 °F
Thursday
Night
Mostly Clear

Low 80 °F
Friday

Isolated T-storm

High 97 °F

Sign-up For Email & Text Message Weather Alert Notification Services


Advertise Here

Observation History for HOUSTON, TEXAS


Time Wind
(mph)
Vis
(mi)
Weather Precip (in) Temperature (F) Relative
Humidity
Wind
Chill
(F)
Heat
Index
(F)
Pressure
Air Dwpt altimeter
(in)
sea level
(mb)
6:53 am CDT S 5.8 10.00 Overcast -- 82.0 75.0 79% NA 89 29.90 1012.4
5:53 am CDT N 0.0 10.00 Overcast -- 81.0 75.0 82% NA 87 29.88 1011.7
4:53 am CDT 4.6 10.00 Mostly Cloudy -- 81.0 75.0 82% NA 87 29.86 1010.9
3:53 am CDT S 8.1 10.00 Mostly Cloudy -- 81.0 75.0 82% NA 87 29.85 1010.6
2:53 am CDT S 9.2 10.00 Overcast -- 81.0 75.0 82% NA 87 29.85 1010.6
1:53 am CDT 4.6 10.00 Partly Cloudy Trace 81.0 73.9 79% NA 86 29.85 1010.6
12:53 am CDT S 5.8 10.00 Fair -- 81.0 73.0 77% NA 86 29.86 1010.9
11:53 pm CDT S 8.1 10.00 Fair -- 82.0 73.0 74% NA 87 29.85 1010.7
10:53 pm CDT S 8.1 10.00 Fair -- 83.0 73.0 72% NA 89 29.84 1010.1
9:53 pm CDT S 8.1 10.00 Fair -- 85.0 71.1 63% NA 90 29.82 1009.4
8:53 pm CDT S 6.9 10.00 Fair -- 86.0 73.0 65% NA 93 29.80 1008.9
7:53 pm CDT SW 4.6 10.00 Fair -- 87.0 71.1 59% NA 93 29.80 1008.9
6:53 pm CDT S 5.8 10.00 Fair -- 89.0 71.1 55% NA 95 29.80 1008.8
5:53 pm CDT N 0.0 10.00 A Few Clouds -- 88.0 72.0 59% NA 95 29.81 1009.2
4:53 pm CDT W 4.6 10.00 Fair -- 88.0 71.1 57% NA 94 29.83 1009.9
3:53 pm CDT SW 4.6 10.00 Fair -- 89.0 71.1 55% NA 95 29.84 1010.4
2:53 pm CDT W 5.8 10.00 A Few Clouds -- 90.0 71.1 54% NA 96 29.87 1011.2
1:53 pm CDT NW 5.8 10.00 A Few Clouds -- 89.0 72.0 57% NA 96 29.89 1011.9
12:53 pm CDT W 9.2 10.00 A Few Clouds -- 88.0 73.0 61% NA 96 29.91 1012.7
11:53 am CDT W 8.1 10.00 A Few Clouds -- 87.0 73.0 63% NA 94 29.91 1012.4
10:53 am CDT SW 10.4 10.00 A Few Clouds -- 85.0 73.0 68% NA 92 29.90 1012.4
9:53 am CDT W 8.1 10.00 Overcast -- 83.0 73.9 74% NA 90 29.90 1012.3
8:53 am CDT SW 9.2 10.00 Overcast -- 80.0 73.9 82% NA 84 29.90 1012.3
7:53 am CDT SW 9.2 10.00 Overcast -- 79.0 73.9 85% NA NA 29.89 1012.0

Regional Weather Observation

John Dunn Helistop, TX (KMCJ)

Mostly Cloudy
81.0 F

Houston, Houston Hobby Airport, TX (KHOU)

Mostly Cloudy
82.0 F

Houston Southwest Airport, TX (KAXH)

Mostly Cloudy
79.0 F

Conroe, Montgomery County Airport, TX (KCXO)

Overcast
79.0 F

Houston, Pearland Regional Airport, TX (KLVJ)

Mostly Cloudy
82.0 F

Cleveland, TX (K6R3)

Fog/Mist
78.0 F
Advertise Here

Advertise Here